Regional Weather Roundup
Issued by NWS Albany, NY

Home | Current Version | Previous Version | Text Only | Print | Product List | Glossary On
Versions: 1 2 3 4 5 6 7 8 9 10 11 12 13 14 15 16 17 18 19 20 21 22 23 24 25 26 27 28
000
ASUS41 KALY 031210
RWRALY

NEW YORK STATE HOURLY WEATHER ROUNDUP
NATIONAL WEATHER SERVICE ALBANY NY
800 AM EDT TUE AUG 03 2021

NOTE: "FAIR" INDICATES FEW OR NO CLOUDS BELOW 12,000 FEET WITH NO
SIGNIFICANT WEATHER AND/OR NO OBSTRUCTIONS TO VISIBILITY.

NYZ032-033-038>043-046>054-057>066-NYZ062>081-082-084-031300-
EAST


CITY           SKY/WX    TMP DP  RH WIND       PRES   REMARKS
ALBANY         MOSUNNY   56  54  93 S6        30.15R
GLENS FALLS    SUNNY     57  55  93 CALM      30.13S
POUGHKEEPSIE   PTSUNNY   57  53  86 CALM      30.14S
NEWBURGH       PTSUNNY   55  55 100 CALM      30.15R
MONTGOMERY     PTSUNNY   54  52  93 CALM      30.15R
WHITE PLAINS   CLOUDY    62  52  69 NW6       30.13S
ISLIP          CLOUDY    68  58  70 N5        30.12R
NEW YORK CITY  CLOUDY    69  53  56 NE3       30.12S
CENTRAL PARK   CLOUDY    68  55  63 VRB3      30.15S
$$

NYZ005>009-017-018-044>046-055-056-031300-
CENTRAL


CITY           SKY/WX    TMP DP  RH WIND       PRES   REMARKS
FULTON         SUNNY     58  52  80 S5        30.11S
SYRACUSE       MOSUNNY   59  50  72 SE5       30.13R
ROME           SUNNY     55  51  86 E5        30.14S
ELMIRA         CLOUDY    53  52  96 W6        30.16R FOG
BINGHAMTON     SUNNY     54  50  86 CALM      30.15S
MONTICELLO     MOSUNNY   51  49  92 CALM      30.17S
$$

NYZ026>034-041>043-087-031300-
NORTH


CITY           SKY/WX    TMP DP  RH WIND       PRES   REMARKS
WATERTOWN      SUNNY     62  52  69 SW6       30.09S
FORT DRUM      NOT AVBL
OGDENSBURG     FAIR      63  59  88 S8        30.05R
MASSENA        SUNNY     63  55  75 SW10      30.06S
SARANAC LAKE   SUNNY     56  53  90 SW7       30.11R
PLATTSBURGH    SUNNY     64  55  72 S3        30.06S
$$

NYZ001>004-010>016-019>021-085-031300-
WEST


CITY           SKY/WX    TMP DP  RH WIND       PRES   REMARKS
NIAGARA FALLS  SUNNY     63  55  75 S6        30.11R
BUFFALO        SUNNY     62  55  77 S6        30.12S
DUNKIRK        SUNNY     66  56  70 SW6       30.13R
JAMESTOWN      MOSUNNY   54  50  86 MISG      30.17R
WELLSVILLE     SUNNY     51  51 100 CALM      30.19R
ROCHESTER      MOSUNNY   58  53  84 SW10      30.12S
PENN YAN       SUNNY     59  53  80 SW9       30.14S
$$

             KEY
       WCI = WIND CHILL INDEX
       VSB = VISIBILITY
       HX  = HEAT INDEX
$$



USA.gov is the U.S. government's official web portal to all federal, state and local government web resources and services.